Regional Weather Roundup
Issued by NWS

Home | Current Version | Previous Version | Text Only | Print | Product List | Glossary Off
Versions: 1 2 3 4 5 6 7 8 9 10 11 12 13 14 15 16 17 18 19 20 21 22 23 24 25 26 27 28 29 30 31 32 33 34 35 36 37 38 39 40 41 42 43 44 45 46 47 48 49 50

000
ASUS44 KMEG 142010
RWRTN
TENNESSEE HOURLY STATE WEATHER ROUNDUP
NATIONAL WEATHER SERVICE MEMPHIS TN
200 PM CST SUN FEB 14 2016

TNZ002-004-019-021-049-052-054-088>092-142100-
WEST TENNESSEE

CITY           SKY/WX    TMP DP  RH WIND       PRES   REMARKS
MEMPHIS INTL   CLOUDY    52  25  35 S16       29.99F
NWS MEMPHIS      N/A     50 N/A N/A MISG        N/A
JACKSON        CLOUDY    42  18  37 S10G17    30.02F
DYERSBURG      CLOUDY    34  21  60 SE9       30.02F WCI  26
UNION CITY     CLOUDY    28  23  80 SE8       30.01F WCI  20
PARIS          CLOUDY    27  19  74 SE8       30.03F WCI  18
LEXINGTON      CLOUDY    36  16  44 S7        30.03F WCI  30
$$

TNZ008-025-027-028-033-062-065-066-142100-
NORTH MIDDLE TENNESSEE

CITY           SKY/WX    TMP DP  RH WIND       PRES   REMARKS
NASHVILLE      CLOUDY    31  16  54 SE12      30.11F WCI  22
CLARKSVILLE    CLOUDY    27  21  78 SE9       30.07F WCI  18
SMYRNA         CLOUDY    30  21  69 SE9       30.12F WCI  22
COOKEVILLE     PTSUNNY   30  14  51 S10       30.13F WCI  21
CROSSVILLE     MIX PCPN  26  13  57 VRB3      30.15F
$$

TNZ061-075-076-078-094-096-097-142100-
SOUTH MIDDLE TENNESSEE

CITY           SKY/WX    TMP DP  RH WIND       PRES   REMARKS
FAYETTEVILLE   CLOUDY    39  10  30 SE7       30.13F WCI  34
TULLAHOMA      CLOUDY    34   9  35 SE7       30.13F WCI  28
WINCHESTER     CLOUDY    37  10  32 SE7       30.14F WCI  32
MCMINNVILLE    CLOUDY    34  12  40 SE7       30.13F WCI  28
COLUMBIA       CLOUDY    34  18  51 SE8       30.06F WCI  27
SHELBYVILLE    CLOUDY    34  18  51 SE6       30.12F WCI  29
$$

TNZ017-018-042-046-047-142100-
NORTHEAST TENNESSEE

CITY           SKY/WX    TMP DP  RH WIND       PRES   REMARKS
TRI CITIES     CLOUDY    25   7  46 VRB3      30.25F
$$

TNZ012-013-036-069-073-074-142100-
CENTRAL EAST TENNESSEE

CITY           SKY/WX    TMP DP  RH WIND       PRES   REMARKS
KNOXVILLE      FLURRIES  25  10  53 NE8       30.25F WCI  16
OAK RIDGE      CLOUDY    25  13  60 NE5       30.26F WCI  19
GATLINBURG     CLOUDY    23  10  58 NE6       30.26R WCI  16
MORRISTOWN     HAZE      23  19  86 NE6       30.24F VSB 1/4 WCI  16
$$

TNZ083-085-099-142100-
SOUTHEAST TENNESSEE

CITY           SKY/WX    TMP DP  RH WIND       PRES   REMARKS
CHATTANOOGA    CLOUDY    35  13  40 N13       30.21F WCI  26
$$

SKY/WX REPORTED AS FAIR MEANS FEW OR NO CLOUDS BELOW
12 THOUSAND FEET.




USA.gov is the U.S. government's official web portal to all federal, state and local government web resources and services.